AMX461 MDPC-MMMX

Flight info

Callsign AMX461
Flight time 4h 34m
Altitude 36000
Route RETAK2T RETAK UM348 ALBBE M348 MEDKO UM348 UVA UR628 UHA UR522 PAZ UT154 ENAGA ENAGA3A
Aircraft B38M/M-SDE1FGHILORVWXY/HB1

Departure

Time 2026-05-07 22:16
Airport Punta Cana International Airport (MDPC)

Arrival

Time 2026-05-08 02:50
Airport Mexico City Benito Juárez International Airport (MMMX)
Time Latitude Longitude Altitude Speed Heading
2026-05-07 21:49 18.56371 -68.36508 52 ft 0 kts 175°
2026-05-07 22:03 18.56378 -68.36509 52 ft 4 kts 175°
2026-05-07 22:04 18.56414 -68.36512 49 ft 4 kts 175°
2026-05-07 22:04 18.56437 -68.36513 47 ft 4 kts 191°
2026-05-07 22:04 18.56455 -68.36501 48 ft 4 kts 250°
2026-05-07 22:04 18.56458 -68.36474 48 ft 4 kts 271°
2026-05-07 22:05 18.56458 -68.36460 48 ft 1 kts 264°
2026-05-07 22:09 18.56457 -68.36476 51 ft 4 kts 264°
2026-05-07 22:09 18.56453 -68.36511 51 ft 6 kts 263°
2026-05-07 22:10 18.56454 -68.36561 52 ft 8 kts 283°
2026-05-07 22:10 18.56479 -68.36614 52 ft 9 kts 306°
2026-05-07 22:10 18.56515 -68.36670 53 ft 10 kts 296°
2026-05-07 22:10 18.56525 -68.36744 53 ft 11 kts 266°
2026-05-07 22:11 18.56518 -68.36827 50 ft 12 kts 264°
2026-05-07 22:11 18.56509 -68.36919 50 ft 13 kts 264°
2026-05-07 22:11 18.56499 -68.37020 53 ft 14 kts 264°
2026-05-07 22:11 18.56492 -68.37128 51 ft 15 kts 267°
2026-05-07 22:12 18.56481 -68.37247 52 ft 18 kts 265°
2026-05-07 22:12 18.56469 -68.37385 52 ft 20 kts 265°
2026-05-07 22:12 18.56457 -68.37532 52 ft 21 kts 265°
2026-05-07 22:12 18.56446 -68.37663 50 ft 18 kts 265°
2026-05-07 22:13 18.56471 -68.37779 51 ft 17 kts 333°
2026-05-07 22:13 18.56591 -68.37791 53 ft 18 kts 358°
2026-05-07 22:13 18.56701 -68.37848 53 ft 20 kts 296°
2026-05-07 22:13 18.56740 -68.37943 50 ft 23 kts 293°
2026-05-07 22:14 18.56796 -68.38072 52 ft 12 kts 293°
2026-05-07 22:14 18.56829 -68.38147 50 ft 10 kts 298°
2026-05-07 22:14 18.56859 -68.38216 50 ft 11 kts 297°
2026-05-07 22:14 18.56927 -68.38261 52 ft 15 kts 343°
2026-05-07 22:15 18.57059 -68.38181 54 ft 42 kts 75°
2026-05-07 22:15 18.57213 -68.37623 49 ft 115 kts 73°
2026-05-07 22:15 18.57392 -68.36978 54 ft 154 kts 75°
2026-05-07 22:15 18.57718 -68.35788 375 ft 181 kts 76°
2026-05-07 22:16 18.58080 -68.34434 896 ft 203 kts 77°
2026-05-07 22:16 18.58456 -68.33039 1820 ft 199 kts 73°
2026-05-07 22:16 18.58860 -68.31551 2263 ft 222 kts 81°
2026-05-07 22:16 18.58712 -68.29874 2739 ft 239 kts 114°
2026-05-07 22:17 18.57710 -68.28562 3769 ft 238 kts 143°
2026-05-07 22:17 18.56245 -68.27579 3957 ft 257 kts 146°
2026-05-07 22:17 18.54736 -68.26533 4036 ft 263 kts 145°
2026-05-07 22:17 18.53100 -68.25695 4228 ft 264 kts 167°
2026-05-07 22:18 18.51258 -68.25733 4498 ft 269 kts 194°
2026-05-07 22:18 18.48432 -68.28247 4923 ft 277 kts 232°
2026-05-07 22:18 18.47283 -68.29886 5047 ft 280 kts 240°
2026-05-07 22:19 18.46809 -68.31835 5864 ft 279 kts 270°
2026-05-07 22:19 18.46924 -68.33901 6697 ft 285 kts 271°
2026-05-07 22:19 18.46959 -68.35994 7542 ft 287 kts 270°
2026-05-07 22:19 18.46947 -68.38111 8371 ft 291 kts 269°
2026-05-07 22:20 18.46906 -68.40267 8791 ft 295 kts 269°
2026-05-07 22:20 18.46850 -68.42431 8889 ft 295 kts 269°
2026-05-07 22:20 18.46784 -68.44583 8921 ft 293 kts 268°
2026-05-07 22:20 18.46714 -68.46732 9200 ft 294 kts 268°
2026-05-07 22:21 18.46639 -68.48891 9488 ft 296 kts 268°
2026-05-07 22:21 18.46562 -68.51055 9769 ft 296 kts 268°
2026-05-07 22:21 18.46485 -68.53229 10030 ft 297 kts 269°
2026-05-07 22:21 18.46694 -68.55378 10258 ft 295 kts 290°
2026-05-07 22:22 18.47597 -68.57311 10523 ft 296 kts 298°
2026-05-07 22:22 18.48530 -68.59251 10778 ft 297 kts 297°
2026-05-07 22:22 18.49453 -68.61202 11029 ft 298 kts 297°
2026-05-07 22:22 18.50373 -68.63163 11288 ft 299 kts 297°
2026-05-07 22:23 18.51294 -68.65133 11541 ft 300 kts 297°
2026-05-07 22:23 18.52216 -68.67110 11802 ft 301 kts 297°
2026-05-07 22:23 18.53128 -68.69067 12074 ft 302 kts 297°
2026-05-07 22:23 18.54054 -68.71056 12329 ft 303 kts 297°
2026-05-07 22:24 18.54980 -68.73048 12597 ft 303 kts 297°
2026-05-07 22:24 18.55911 -68.75049 12863 ft 304 kts 297°
2026-05-07 22:24 18.56845 -68.77057 13135 ft 306 kts 297°
2026-05-07 22:24 18.57781 -68.79069 13406 ft 307 kts 297°
2026-05-07 22:25 18.58720 -68.81090 13677 ft 308 kts 297°
2026-05-07 22:25 18.59663 -68.83121 13936 ft 309 kts 297°
2026-05-07 22:25 18.60610 -68.85159 14182 ft 310 kts 297°
2026-05-07 22:25 18.61559 -68.87205 14427 ft 311 kts 297°
2026-05-07 22:26 18.62513 -68.89260 14675 ft 312 kts 297°
2026-05-07 22:26 18.63467 -68.91318 14922 ft 313 kts 297°
2026-05-07 22:26 18.64428 -68.93390 15172 ft 315 kts 297°
2026-05-07 22:26 18.65390 -68.95467 15428 ft 316 kts 297°
2026-05-07 22:27 18.66356 -68.97551 15681 ft 317 kts 297°
2026-05-07 22:27 18.67325 -68.99644 15938 ft 318 kts 297°
2026-05-07 22:27 18.68299 -69.01748 16202 ft 320 kts 297°
2026-05-07 22:27 18.69276 -69.03859 16468 ft 321 kts 297°
2026-05-07 22:28 18.70256 -69.05977 16731 ft 322 kts 297°
2026-05-07 22:28 18.71239 -69.08103 16990 ft 323 kts 297°
2026-05-07 22:28 18.72226 -69.10239 17259 ft 324 kts 297°
2026-05-07 22:28 18.73216 -69.12379 17529 ft 325 kts 297°
2026-05-07 22:29 18.74208 -69.14528 17819 ft 327 kts 297°
2026-05-07 22:29 18.75206 -69.16689 18082 ft 328 kts 297°
2026-05-07 22:29 18.76207 -69.18857 18353 ft 330 kts 297°
2026-05-07 22:29 18.77213 -69.21038 18591 ft 331 kts 297°
2026-05-07 22:30 18.78222 -69.23226 18832 ft 332 kts 297°
2026-05-07 22:30 18.79234 -69.25421 19073 ft 334 kts 297°
2026-05-07 22:30 18.80253 -69.27631 19314 ft 335 kts 297°
2026-05-07 22:30 18.81273 -69.29844 19559 ft 336 kts 297°
2026-05-07 22:31 18.82299 -69.32072 19809 ft 338 kts 297°
2026-05-07 22:31 18.83327 -69.34305 20058 ft 339 kts 297°
2026-05-07 22:31 18.84361 -69.36551 20291 ft 343 kts 297°
2026-05-07 22:31 18.85429 -69.38874 20329 ft 360 kts 297°
2026-05-07 22:32 18.86547 -69.41306 20363 ft 376 kts 297°
2026-05-07 22:32 18.87688 -69.43788 20544 ft 385 kts 297°
2026-05-07 22:32 18.88859 -69.46336 21017 ft 386 kts 297°
2026-05-07 22:32 18.90034 -69.48894 21424 ft 389 kts 297°
2026-05-07 22:33 18.91219 -69.51476 21832 ft 392 kts 297°
2026-05-07 22:33 18.92409 -69.54071 22244 ft 394 kts 297°
2026-05-07 22:33 18.93609 -69.56687 22651 ft 397 kts 297°
2026-05-07 22:33 18.94815 -69.59315 23045 ft 399 kts 297°
2026-05-07 22:34 18.96028 -69.61964 23433 ft 402 kts 297°
2026-05-07 22:34 18.97248 -69.64628 23788 ft 404 kts 297°
2026-05-07 22:34 18.98475 -69.67308 24123 ft 406 kts 297°
2026-05-07 22:34 18.99706 -69.69997 24473 ft 407 kts 298°
2026-05-07 22:35 19.00940 -69.72696 24807 ft 409 kts 298°
2026-05-07 22:35 19.02179 -69.75405 25141 ft 410 kts 298°
2026-05-07 22:35 19.03422 -69.78126 25469 ft 412 kts 298°
2026-05-07 22:35 19.04671 -69.80860 25806 ft 414 kts 298°
2026-05-07 22:36 19.05924 -69.83605 26127 ft 416 kts 298°
2026-05-07 22:36 19.07181 -69.86360 26450 ft 417 kts 298°
2026-05-07 22:36 19.08446 -69.89133 26770 ft 419 kts 298°
2026-05-07 22:36 19.09713 -69.91913 27092 ft 421 kts 298°
2026-05-07 22:37 19.10986 -69.94706 27399 ft 422 kts 298°
2026-05-07 22:37 19.12264 -69.97512 27690 ft 424 kts 298°
2026-05-07 22:37 19.13546 -70.00328 27982 ft 426 kts 298°
2026-05-07 22:37 19.14831 -70.03153 28282 ft 428 kts 298°
2026-05-07 22:38 19.16124 -70.05996 28569 ft 429 kts 298°
2026-05-07 22:38 19.17420 -70.08847 28840 ft 431 kts 298°
2026-05-07 22:38 19.18721 -70.11712 29095 ft 433 kts 298°
2026-05-07 22:38 19.20029 -70.14592 29376 ft 435 kts 298°
2026-05-07 22:39 19.21340 -70.17481 29646 ft 436 kts 299°
2026-05-07 22:39 19.22656 -70.20382 29873 ft 438 kts 298°
2026-05-07 22:39 19.23960 -70.23259 30004 ft 441 kts 298°
2026-05-07 22:40 19.26625 -70.29141 29991 ft 439 kts 298°
2026-05-07 22:40 19.29266 -70.34978 29994 ft 439 kts 298°
2026-05-07 22:41 19.31903 -70.40809 29987 ft 440 kts 298°
2026-05-07 22:41 19.34535 -70.46636 30153 ft 444 kts 298°
2026-05-07 22:41 19.35869 -70.49591 30398 ft 445 kts 298°
2026-05-07 22:42 19.37202 -70.52545 30640 ft 445 kts 298°
2026-05-07 22:42 19.38539 -70.55509 30896 ft 446 kts 299°
2026-05-07 22:42 19.39876 -70.58477 31135 ft 447 kts 299°
2026-05-07 22:42 19.41377 -70.61337 31360 ft 442 kts 310°
2026-05-07 22:43 19.43284 -70.63860 31623 ft 441 kts 311°
2026-05-07 22:43 19.45162 -70.66440 31875 ft 441 kts 311°
2026-05-07 22:43 19.47035 -70.69012 32119 ft 441 kts 311°
2026-05-07 22:43 19.48914 -70.71588 32381 ft 441 kts 311°
2026-05-07 22:44 19.50792 -70.74165 32637 ft 442 kts 311°
2026-05-07 22:44 19.52668 -70.76739 32894 ft 442 kts 311°
2026-05-07 22:44 19.54549 -70.79321 33153 ft 442 kts 311°
2026-05-07 22:44 19.56424 -70.81896 33418 ft 441 kts 311°
2026-05-07 22:45 19.58298 -70.84471 33687 ft 441 kts 311°
2026-05-07 22:45 19.60175 -70.87049 33936 ft 441 kts 312°
2026-05-07 22:45 19.62054 -70.89633 33994 ft 444 kts 312°
2026-05-07 22:46 19.65857 -70.94865 33967 ft 450 kts 311°
2026-05-07 22:46 19.69675 -71.00123 33979 ft 449 kts 311°
2026-05-07 22:47 19.73486 -71.05377 33985 ft 449 kts 311°
2026-05-07 22:47 19.77291 -71.10626 33988 ft 448 kts 312°
2026-05-07 22:48 19.81089 -71.15869 33986 ft 448 kts 311°
2026-05-07 22:48 19.84884 -71.21114 33984 ft 448 kts 312°
2026-05-07 22:49 19.88676 -71.26359 33981 ft 447 kts 311°
2026-05-07 22:49 19.92462 -71.31600 34003 ft 447 kts 311°
2026-05-07 22:50 19.96249 -71.36848 34002 ft 447 kts 311°
2026-05-07 22:50 20.00028 -71.42089 33993 ft 447 kts 311°
2026-05-07 22:51 20.03782 -71.47298 34002 ft 446 kts 311°
2026-05-07 22:51 20.07579 -71.52574 34009 ft 446 kts 311°
2026-05-07 22:52 20.11325 -71.57778 33952 ft 448 kts 309°
2026-05-07 22:52 20.15131 -71.63079 34004 ft 454 kts 309°
2026-05-07 22:53 20.18993 -71.68477 34003 ft 461 kts 307°
2026-05-07 22:53 20.20505 -71.71483 34004 ft 463 kts 294°
2026-05-07 22:53 20.21781 -71.74638 33996 ft 464 kts 296°
2026-05-07 22:54 20.24424 -71.80913 34004 ft 464 kts 296°
2026-05-07 22:54 20.27028 -71.87199 34004 ft 465 kts 295°
2026-05-07 22:55 20.29515 -71.93558 34005 ft 465 kts 295°
2026-05-07 22:55 20.31991 -71.99924 34005 ft 465 kts 295°
2026-05-07 22:56 20.34461 -72.06284 34009 ft 465 kts 295°
2026-05-07 22:56 20.36931 -72.12651 34010 ft 465 kts 295°
2026-05-07 22:57 20.39398 -72.19019 34010 ft 465 kts 295°
2026-05-07 22:57 20.41864 -72.25391 34008 ft 465 kts 295°
2026-05-07 22:58 20.44327 -72.31763 34012 ft 465 kts 295°
2026-05-07 22:58 20.46787 -72.38137 34010 ft 465 kts 295°
2026-05-07 22:59 20.49244 -72.44511 34013 ft 465 kts 295°
2026-05-07 22:59 20.51701 -72.50893 34011 ft 465 kts 295°
2026-05-07 23:00 20.54153 -72.57268 34013 ft 465 kts 295°
2026-05-07 23:00 20.56603 -72.63650 34011 ft 465 kts 295°
2026-05-07 23:01 20.59038 -72.69998 34012 ft 465 kts 295°
2026-05-07 23:01 20.61483 -72.76382 34010 ft 465 kts 295°
2026-05-07 23:02 20.63926 -72.82767 34012 ft 465 kts 295°
2026-05-07 23:02 20.66367 -72.89157 34013 ft 465 kts 295°
2026-05-07 23:03 20.68807 -72.95550 34011 ft 465 kts 295°
2026-05-07 23:03 20.71241 -73.01937 34008 ft 464 kts 295°
2026-05-07 23:04 20.73675 -73.08331 34014 ft 464 kts 295°
2026-05-07 23:04 20.75694 -73.13642 34022 ft 464 kts 295°
2026-05-07 23:05 20.78122 -73.20038 34016 ft 464 kts 295°
2026-05-07 23:05 20.80548 -73.26437 34015 ft 464 kts 295°
2026-05-07 23:06 20.82970 -73.32832 34016 ft 464 kts 294°
2026-05-07 23:06 20.85391 -73.39233 34016 ft 464 kts 294°
2026-05-07 23:07 20.87809 -73.45635 34017 ft 464 kts 294°
2026-05-07 23:07 20.90227 -73.52042 34017 ft 464 kts 294°
2026-05-07 23:08 20.92640 -73.58446 34016 ft 464 kts 294°
2026-05-07 23:08 20.95051 -73.64851 34014 ft 464 kts 294°
2026-05-07 23:09 20.97347 -73.71313 34012 ft 465 kts 292°
2026-05-07 23:09 20.99562 -73.77823 34013 ft 465 kts 292°
2026-05-07 23:10 21.01771 -73.84331 34015 ft 465 kts 292°
2026-05-07 23:10 21.03976 -73.90836 34016 ft 465 kts 292°
2026-05-07 23:11 21.06182 -73.97353 34015 ft 465 kts 292°
2026-05-07 23:11 21.08385 -74.03871 34015 ft 466 kts 292°
2026-05-07 23:12 21.10586 -74.10392 34013 ft 466 kts 292°
2026-05-07 23:12 21.12785 -74.16919 34011 ft 466 kts 292°
2026-05-07 23:13 21.14982 -74.23446 34016 ft 466 kts 291°
2026-05-07 23:13 21.17177 -74.29978 34011 ft 466 kts 291°
2026-05-07 23:14 21.19369 -74.36509 34015 ft 466 kts 291°
2026-05-07 23:14 21.21561 -74.43048 34015 ft 466 kts 291°
2026-05-07 23:15 21.23760 -74.49587 34013 ft 466 kts 291°
2026-05-07 23:15 21.25956 -74.56118 34010 ft 466 kts 291°
2026-05-07 23:16 21.28154 -74.62664 34011 ft 466 kts 291°
2026-05-07 23:16 21.30346 -74.69200 34010 ft 466 kts 291°
2026-05-07 23:17 21.32537 -74.75745 34013 ft 466 kts 291°
2026-05-07 23:17 21.34710 -74.82245 34012 ft 466 kts 291°
2026-05-07 23:18 21.36892 -74.88781 34012 ft 466 kts 291°
2026-05-07 23:18 21.39074 -74.95325 34012 ft 465 kts 291°
2026-05-07 23:19 21.41250 -75.01862 34011 ft 465 kts 291°
2026-05-07 23:19 21.43421 -75.08394 34008 ft 465 kts 291°
2026-05-07 23:20 21.45589 -75.14926 34015 ft 464 kts 291°
2026-05-07 23:20 21.47754 -75.21457 34012 ft 464 kts 291°
2026-05-07 23:21 21.49914 -75.27985 34013 ft 464 kts 291°
2026-05-07 23:21 21.52069 -75.34506 34011 ft 463 kts 291°
2026-05-07 23:22 21.54220 -75.41026 34014 ft 463 kts 291°
2026-05-07 23:22 21.56368 -75.47544 34013 ft 463 kts 291°
2026-05-07 23:23 21.58511 -75.54059 34012 ft 463 kts 291°
2026-05-07 23:23 21.60654 -75.60581 34006 ft 463 kts 291°
2026-05-07 23:24 21.62793 -75.67100 34009 ft 462 kts 291°
2026-05-07 23:24 21.64913 -75.73575 34011 ft 462 kts 291°
2026-05-07 23:25 21.67059 -75.80135 34021 ft 462 kts 291°
2026-05-07 23:25 21.69175 -75.86613 34019 ft 462 kts 291°
2026-05-07 23:26 21.71299 -75.93127 34015 ft 462 kts 291°
2026-05-07 23:26 21.73421 -75.99641 34017 ft 461 kts 291°
2026-05-07 23:27 21.76597 -76.09415 34001 ft 461 kts 291°
2026-05-07 23:27 21.78709 -76.15924 34001 ft 461 kts 291°
2026-05-07 23:28 21.80819 -76.22436 34004 ft 461 kts 291°
2026-05-07 23:28 21.82922 -76.28939 34002 ft 460 kts 291°
2026-05-07 23:29 21.85025 -76.35451 34008 ft 460 kts 291°
2026-05-07 23:29 21.87123 -76.41955 34011 ft 460 kts 291°
2026-05-07 23:30 21.89216 -76.48457 34009 ft 460 kts 291°
2026-05-07 23:30 21.91307 -76.54959 34010 ft 459 kts 291°
2026-05-07 23:31 21.93394 -76.61461 34010 ft 459 kts 291°
2026-05-07 23:31 21.95477 -76.67959 34009 ft 459 kts 291°
2026-05-07 23:32 21.97556 -76.74456 34011 ft 459 kts 291°
2026-05-07 23:32 21.99630 -76.80947 34012 ft 458 kts 291°
2026-05-07 23:33 22.01705 -76.87448 34013 ft 459 kts 290°
2026-05-07 23:33 22.03777 -76.93950 34013 ft 459 kts 291°
2026-05-07 23:34 22.05844 -77.00452 34004 ft 459 kts 290°
2026-05-07 23:34 22.07908 -77.06958 34011 ft 458 kts 290°
2026-05-07 23:35 22.09969 -77.13465 34011 ft 459 kts 290°
2026-05-07 23:35 22.12013 -77.19928 34012 ft 458 kts 290°
2026-05-07 23:36 22.14068 -77.26435 34013 ft 459 kts 290°
2026-05-07 23:36 22.16122 -77.32947 34008 ft 459 kts 290°
2026-05-07 23:37 22.18173 -77.39459 34016 ft 458 kts 290°
2026-05-07 23:37 22.20223 -77.45974 34009 ft 458 kts 290°
2026-05-07 23:38 22.22270 -77.52489 34011 ft 458 kts 290°
2026-05-07 23:38 22.24313 -77.59002 34009 ft 458 kts 290°
2026-05-07 23:39 22.26353 -77.65518 34008 ft 458 kts 290°
2026-05-07 23:39 22.28390 -77.72032 34005 ft 458 kts 290°
2026-05-07 23:40 22.30422 -77.78543 34014 ft 457 kts 290°
2026-05-07 23:40 22.32451 -77.85052 34006 ft 457 kts 290°
2026-05-07 23:41 22.34475 -77.91557 34013 ft 457 kts 290°
2026-05-07 23:41 22.36498 -77.98068 34013 ft 457 kts 290°
2026-05-07 23:42 22.38518 -78.04577 34012 ft 456 kts 290°
2026-05-07 23:42 22.40531 -78.11081 34010 ft 456 kts 290°
2026-05-07 23:43 22.42542 -78.17583 34012 ft 456 kts 290°
2026-05-07 23:43 22.44550 -78.24087 34015 ft 456 kts 290°
2026-05-07 23:44 22.46547 -78.30585 34010 ft 456 kts 288°
2026-05-07 23:44 22.47877 -78.37292 34009 ft 457 kts 283°
2026-05-07 23:45 22.49141 -78.44030 34010 ft 457 kts 283°
2026-05-07 23:45 22.50401 -78.50765 34012 ft 457 kts 283°
2026-05-07 23:46 22.51650 -78.57461 34014 ft 457 kts 283°
2026-05-07 23:46 22.52913 -78.64244 34011 ft 457 kts 283°
2026-05-07 23:47 22.54163 -78.70976 34014 ft 457 kts 283°
2026-05-07 23:47 22.55411 -78.77716 34011 ft 457 kts 283°
2026-05-07 23:48 22.56654 -78.84445 34010 ft 456 kts 283°
2026-05-07 23:48 22.57896 -78.91182 34011 ft 456 kts 283°
2026-05-07 23:49 22.59125 -78.97864 34010 ft 456 kts 283°
2026-05-07 23:49 22.60358 -79.04590 34015 ft 456 kts 283°
2026-05-07 23:50 22.61590 -79.11319 34013 ft 455 kts 283°
2026-05-07 23:50 22.62816 -79.18037 34013 ft 455 kts 283°
2026-05-07 23:51 22.64040 -79.24760 34013 ft 455 kts 283°
2026-05-07 23:51 22.65259 -79.31475 34014 ft 455 kts 283°
2026-05-07 23:52 22.66280 -79.37105 34009 ft 454 kts 283°
2026-05-07 23:52 22.67486 -79.43775 34011 ft 454 kts 283°
2026-05-07 23:53 22.68695 -79.50481 34013 ft 454 kts 283°
2026-05-07 23:53 22.69902 -79.57188 34012 ft 454 kts 283°
2026-05-07 23:54 22.71106 -79.63896 34008 ft 454 kts 283°
2026-05-07 23:54 22.72307 -79.70604 34007 ft 454 kts 283°
2026-05-07 23:55 22.73502 -79.77311 34011 ft 453 kts 283°
2026-05-07 23:55 22.74694 -79.84018 34013 ft 453 kts 283°
2026-05-07 23:56 22.75883 -79.90722 34013 ft 453 kts 283°
2026-05-07 23:56 22.77068 -79.97421 34010 ft 453 kts 282°
2026-05-07 23:57 22.78249 -80.04121 34012 ft 453 kts 282°
2026-05-07 23:57 22.79429 -80.10825 34009 ft 453 kts 282°
2026-05-07 23:58 22.80605 -80.17523 34006 ft 453 kts 282°
2026-05-07 23:58 22.81778 -80.24221 34003 ft 452 kts 282°
2026-05-07 23:59 22.82948 -80.30922 34003 ft 452 kts 282°
2026-05-07 23:59 22.84114 -80.37619 34004 ft 452 kts 282°
2026-05-08 00:00 22.85278 -80.44315 34002 ft 452 kts 282°
2026-05-08 00:00 22.86438 -80.51011 34000 ft 452 kts 282°
2026-05-08 00:01 22.87595 -80.57706 33999 ft 452 kts 282°
2026-05-08 00:01 22.88750 -80.64404 33997 ft 452 kts 282°
2026-05-08 00:02 22.89893 -80.71054 33999 ft 451 kts 282°
2026-05-08 00:02 22.91040 -80.77743 34000 ft 451 kts 282°
2026-05-08 00:03 22.92184 -80.84429 33994 ft 451 kts 282°
2026-05-08 00:03 22.93324 -80.91107 33994 ft 450 kts 282°
2026-05-08 00:04 22.94460 -80.97788 33997 ft 450 kts 282°
2026-05-08 00:04 22.95594 -81.04467 34003 ft 450 kts 282°
2026-05-08 00:05 22.96724 -81.11144 34001 ft 450 kts 282°
2026-05-08 00:05 22.97852 -81.17823 34008 ft 450 kts 282°
2026-05-08 00:06 22.98975 -81.24497 34016 ft 450 kts 282°
2026-05-08 00:06 23.00097 -81.31173 34019 ft 450 kts 282°
2026-05-08 00:07 23.01208 -81.37804 34023 ft 450 kts 282°
2026-05-08 00:07 23.02314 -81.44480 34017 ft 450 kts 279°
2026-05-08 00:08 23.02376 -81.47869 34025 ft 451 kts 267°
2026-05-08 00:08 23.02159 -81.51247 34346 ft 444 kts 269°
2026-05-08 00:08 23.02023 -81.54567 34205 ft 436 kts 270°
2026-05-08 00:08 23.01885 -81.57868 34038 ft 441 kts 269°
2026-05-08 00:09 23.01578 -81.64583 34006 ft 450 kts 269°
2026-05-08 00:09 23.01258 -81.71398 34010 ft 453 kts 269°
2026-05-08 00:10 23.00933 -81.78224 34002 ft 453 kts 269°
2026-05-08 00:10 23.00605 -81.85049 34000 ft 452 kts 269°
2026-05-08 00:11 23.00276 -81.91864 34004 ft 452 kts 269°
2026-05-08 00:11 22.99947 -81.98679 34003 ft 452 kts 269°
2026-05-08 00:12 22.99634 -82.05499 34007 ft 452 kts 269°
2026-05-08 00:12 22.99319 -82.12310 34009 ft 452 kts 269°
2026-05-08 00:13 22.99002 -82.19129 34014 ft 452 kts 269°
2026-05-08 00:13 22.98682 -82.25941 34018 ft 452 kts 269°
2026-05-08 00:14 22.98359 -82.32750 34018 ft 452 kts 269°
2026-05-08 00:14 22.98033 -82.39559 34021 ft 452 kts 269°
2026-05-08 00:15 22.97395 -82.46346 34026 ft 453 kts 264°
2026-05-08 00:15 22.96521 -82.53074 34019 ft 453 kts 264°
2026-05-08 00:16 22.95635 -82.59843 34016 ft 453 kts 264°
2026-05-08 00:16 22.94741 -82.66649 34011 ft 453 kts 264°
2026-05-08 00:17 22.93855 -82.73373 34004 ft 453 kts 264°
2026-05-08 00:17 22.92961 -82.80133 33997 ft 453 kts 264°
2026-05-08 00:18 22.92065 -82.86888 33998 ft 453 kts 264°
2026-05-08 00:18 22.91165 -82.93645 34000 ft 453 kts 264°
2026-05-08 00:19 22.90263 -83.00404 34000 ft 452 kts 264°
2026-05-08 00:19 22.89358 -83.07154 33999 ft 452 kts 264°
2026-05-08 00:20 22.88451 -83.13903 34000 ft 452 kts 264°
2026-05-08 00:20 22.87540 -83.20657 33999 ft 452 kts 264°
2026-05-08 00:21 22.86628 -83.27402 33999 ft 452 kts 264°
2026-05-08 00:21 22.85693 -83.34141 33997 ft 452 kts 263°
2026-05-08 00:22 22.84720 -83.40876 34000 ft 452 kts 263°
2026-05-08 00:22 22.83743 -83.47603 33994 ft 452 kts 263°
2026-05-08 00:23 22.82763 -83.54333 33991 ft 452 kts 263°
2026-05-08 00:23 22.81782 -83.61053 33995 ft 452 kts 263°
2026-05-08 00:24 22.80797 -83.67779 33990 ft 451 kts 263°
2026-05-08 00:24 22.79810 -83.74493 33989 ft 451 kts 263°
2026-05-08 00:25 22.78820 -83.81214 33987 ft 452 kts 263°
2026-05-08 00:25 22.77827 -83.87929 33987 ft 451 kts 263°
2026-05-08 00:26 22.76831 -83.94647 33987 ft 451 kts 263°
2026-05-08 00:26 22.75833 -84.01360 33992 ft 451 kts 263°
2026-05-08 00:27 22.74833 -84.08071 33989 ft 451 kts 263°
2026-05-08 00:27 22.73841 -84.14786 33990 ft 451 kts 263°
2026-05-08 00:28 22.72890 -84.21508 33993 ft 451 kts 263°
2026-05-08 00:28 22.71938 -84.28224 33991 ft 451 kts 263°
2026-05-08 00:29 22.70984 -84.34941 33993 ft 451 kts 263°
2026-05-08 00:29 22.70028 -84.41660 33994 ft 451 kts 263°
2026-05-08 00:30 22.69069 -84.48376 33993 ft 451 kts 263°
2026-05-08 00:30 22.68108 -84.55091 33993 ft 451 kts 263°
2026-05-08 00:31 22.67144 -84.61805 33993 ft 451 kts 263°
2026-05-08 00:31 22.66177 -84.68514 33991 ft 451 kts 263°
2026-05-08 00:32 22.65214 -84.75179 33992 ft 451 kts 263°
2026-05-08 00:32 22.64242 -84.81888 33990 ft 451 kts 262°
2026-05-08 00:33 22.63267 -84.88595 33991 ft 451 kts 262°
2026-05-08 00:33 22.62289 -84.95299 33989 ft 451 kts 262°
2026-05-08 00:34 22.61309 -85.02001 33990 ft 451 kts 262°
2026-05-08 00:34 22.60325 -85.08702 33990 ft 451 kts 262°
2026-05-08 00:35 22.59334 -85.15403 33988 ft 451 kts 262°
2026-05-08 00:35 22.58341 -85.22101 33988 ft 451 kts 262°
2026-05-08 00:36 22.57346 -85.28795 33989 ft 451 kts 262°
2026-05-08 00:36 22.56348 -85.35486 33989 ft 450 kts 262°
2026-05-08 00:37 22.55347 -85.42173 33990 ft 450 kts 262°
2026-05-08 00:38 22.53849 -85.52154 33985 ft 450 kts 262°
2026-05-08 00:38 22.52843 -85.58832 33986 ft 450 kts 262°
2026-05-08 00:39 22.51836 -85.65509 33985 ft 450 kts 262°
2026-05-08 00:39 22.50824 -85.72191 33987 ft 450 kts 262°
2026-05-08 00:40 22.49982 -85.77737 33990 ft 450 kts 262°
2026-05-08 00:40 22.48796 -85.85531 33984 ft 449 kts 262°
2026-05-08 00:41 22.47944 -85.91114 33983 ft 449 kts 262°
2026-05-08 00:41 22.46931 -85.97733 33981 ft 449 kts 262°
2026-05-08 00:42 22.45997 -86.04405 33979 ft 449 kts 263°
2026-05-08 00:42 22.45100 -86.11078 33980 ft 449 kts 263°
2026-05-08 00:43 22.44202 -86.17750 33980 ft 448 kts 263°
2026-05-08 00:43 22.43301 -86.24417 33979 ft 448 kts 263°
2026-05-08 00:44 22.42399 -86.31081 33981 ft 448 kts 263°
2026-05-08 00:44 22.41493 -86.37746 33973 ft 448 kts 262°
2026-05-08 00:45 22.40584 -86.44409 33976 ft 448 kts 262°
2026-05-08 00:45 22.39674 -86.51071 33973 ft 448 kts 262°
2026-05-08 00:46 22.38787 -86.57734 33972 ft 448 kts 263°
2026-05-08 00:46 22.37921 -86.64396 33978 ft 448 kts 263°
2026-05-08 00:47 22.37053 -86.71061 33977 ft 448 kts 263°
2026-05-08 00:47 22.36183 -86.77723 33974 ft 448 kts 263°
2026-05-08 00:48 22.35310 -86.84380 33972 ft 448 kts 262°
2026-05-08 00:48 22.34435 -86.91039 33973 ft 448 kts 262°
2026-05-08 00:49 22.33557 -86.97694 33971 ft 448 kts 262°
2026-05-08 00:49 22.32676 -87.04349 33968 ft 448 kts 262°
2026-05-08 00:50 22.31793 -87.11004 33969 ft 448 kts 262°
2026-05-08 00:50 22.30913 -87.17613 33965 ft 448 kts 262°
2026-05-08 00:51 22.30024 -87.24267 33964 ft 448 kts 262°
2026-05-08 00:51 22.29132 -87.30919 33959 ft 448 kts 262°
2026-05-08 00:52 22.28234 -87.37573 33961 ft 448 kts 262°
2026-05-08 00:52 22.27332 -87.44222 33956 ft 448 kts 262°
2026-05-08 00:53 22.26426 -87.50873 33956 ft 448 kts 262°
2026-05-08 00:53 22.25518 -87.57526 33959 ft 448 kts 262°
2026-05-08 00:54 22.24607 -87.64178 33955 ft 448 kts 262°
2026-05-08 00:54 22.23700 -87.70832 33948 ft 448 kts 262°
2026-05-08 00:55 22.22791 -87.77482 33948 ft 448 kts 262°
2026-05-08 00:55 22.21879 -87.84141 33947 ft 448 kts 262°
2026-05-08 00:56 22.20965 -87.90791 33942 ft 448 kts 262°
2026-05-08 00:56 22.20048 -87.97445 33940 ft 448 kts 262°
2026-05-08 00:57 22.19128 -88.04099 33937 ft 448 kts 262°
2026-05-08 00:57 22.18207 -88.10746 33937 ft 448 kts 262°
2026-05-08 00:58 22.17278 -88.17386 33936 ft 448 kts 261°
2026-05-08 00:58 22.16347 -88.24021 33933 ft 447 kts 261°
2026-05-08 00:59 22.15414 -88.30652 33932 ft 447 kts 261°
2026-05-08 00:59 22.14478 -88.37282 33926 ft 447 kts 261°
2026-05-08 01:00 22.13539 -88.43911 33926 ft 447 kts 261°
2026-05-08 01:00 22.12604 -88.50498 33922 ft 448 kts 261°
2026-05-08 01:01 22.11658 -88.57134 33918 ft 448 kts 261°
2026-05-08 01:01 22.10709 -88.63778 33916 ft 448 kts 261°
2026-05-08 01:02 22.09756 -88.70424 33917 ft 448 kts 261°
2026-05-08 01:02 22.08802 -88.77070 33915 ft 449 kts 261°
2026-05-08 01:03 22.07843 -88.83718 33918 ft 449 kts 261°
2026-05-08 01:03 22.06882 -88.90367 33906 ft 449 kts 261°
2026-05-08 01:04 22.05918 -88.97011 33912 ft 449 kts 261°
2026-05-08 01:04 22.04952 -89.03657 33913 ft 449 kts 261°
2026-05-08 01:05 22.03983 -89.10306 33911 ft 449 kts 261°
2026-05-08 01:05 22.03014 -89.16960 33910 ft 449 kts 261°
2026-05-08 01:06 22.02042 -89.23609 33904 ft 449 kts 261°
2026-05-08 01:06 22.01067 -89.30268 33907 ft 450 kts 261°
2026-05-08 01:07 22.00089 -89.36919 33902 ft 450 kts 261°
2026-05-08 01:07 21.99108 -89.43579 33907 ft 450 kts 261°
2026-05-08 01:08 21.98123 -89.50237 33902 ft 450 kts 261°
2026-05-08 01:08 21.97134 -89.56897 33904 ft 450 kts 261°
2026-05-08 01:09 21.96142 -89.63558 33904 ft 450 kts 261°
2026-05-08 01:09 21.95148 -89.70215 33905 ft 450 kts 261°
2026-05-08 01:10 21.94147 -89.76874 33903 ft 450 kts 261°
2026-05-08 01:10 21.93151 -89.83483 33899 ft 450 kts 261°
2026-05-08 01:11 21.92145 -89.90141 33899 ft 450 kts 261°
2026-05-08 01:11 21.91136 -89.96796 33901 ft 450 kts 260°
2026-05-08 01:12 21.90125 -90.03451 33900 ft 450 kts 260°
2026-05-08 01:12 21.89110 -90.10112 33898 ft 451 kts 260°
2026-05-08 01:13 21.88092 -90.16767 33897 ft 451 kts 260°
2026-05-08 01:13 21.87072 -90.23422 33901 ft 451 kts 260°
2026-05-08 01:14 21.86049 -90.30080 33901 ft 451 kts 260°
2026-05-08 01:14 21.85025 -90.36733 33897 ft 451 kts 260°
2026-05-08 01:15 21.84003 -90.43389 33900 ft 451 kts 260°
2026-05-08 01:15 21.82980 -90.50039 33900 ft 451 kts 260°
2026-05-08 01:16 21.81953 -90.56693 33896 ft 451 kts 260°
2026-05-08 01:16 21.80923 -90.63347 33903 ft 451 kts 260°
2026-05-08 01:17 21.79889 -90.70006 33901 ft 451 kts 260°
2026-05-08 01:17 21.78854 -90.76654 33900 ft 451 kts 260°
2026-05-08 01:18 21.77815 -90.83314 33899 ft 451 kts 260°
2026-05-08 01:18 21.76781 -90.89922 33898 ft 451 kts 260°
2026-05-08 01:19 21.75739 -90.96580 33898 ft 451 kts 260°
2026-05-08 01:19 21.74694 -91.03233 33901 ft 451 kts 260°
2026-05-08 01:20 21.73645 -91.09890 33902 ft 453 kts 260°
2026-05-08 01:20 21.72590 -91.16575 33898 ft 454 kts 260°
2026-05-08 01:21 21.71531 -91.23265 33895 ft 454 kts 260°
2026-05-08 01:21 21.70468 -91.29956 33899 ft 454 kts 260°
2026-05-08 01:22 21.69393 -91.36639 33897 ft 454 kts 260°
2026-05-08 01:22 21.68314 -91.43326 33901 ft 454 kts 260°
2026-05-08 01:23 21.67232 -91.50011 33899 ft 454 kts 260°
2026-05-08 01:23 21.66147 -91.56694 33898 ft 454 kts 260°
2026-05-08 01:24 21.65060 -91.63376 33899 ft 454 kts 260°
2026-05-08 01:24 21.63971 -91.70051 33898 ft 454 kts 260°
2026-05-08 01:25 21.62879 -91.76732 33897 ft 454 kts 260°
2026-05-08 01:25 21.61784 -91.83406 33894 ft 454 kts 260°
2026-05-08 01:26 21.60687 -91.90080 33897 ft 453 kts 259°
2026-05-08 01:26 21.59589 -91.96751 33897 ft 453 kts 259°
2026-05-08 01:27 21.58494 -92.03422 33892 ft 453 kts 259°
2026-05-08 01:27 21.57397 -92.10093 33891 ft 453 kts 259°
2026-05-08 01:28 21.56307 -92.16711 33888 ft 453 kts 259°
2026-05-08 01:28 21.55204 -92.23382 33891 ft 453 kts 259°
2026-05-08 01:29 21.54100 -92.30047 33887 ft 453 kts 259°
2026-05-08 01:29 21.53172 -92.35632 33889 ft 453 kts 259°
2026-05-08 01:30 21.52071 -92.42253 33887 ft 453 kts 259°
2026-05-08 01:30 21.50960 -92.48913 33892 ft 453 kts 259°
2026-05-08 01:31 21.49844 -92.55579 33888 ft 453 kts 259°
2026-05-08 01:31 21.48727 -92.62240 33888 ft 454 kts 259°
2026-05-08 01:32 21.47606 -92.68912 33886 ft 454 kts 259°
2026-05-08 01:32 21.46482 -92.75579 33886 ft 454 kts 259°
2026-05-08 01:33 21.45356 -92.82244 33883 ft 454 kts 259°
2026-05-08 01:33 21.44229 -92.88914 33884 ft 454 kts 259°
2026-05-08 01:34 21.43099 -92.95587 33885 ft 454 kts 259°
2026-05-08 01:34 21.41967 -93.02255 33881 ft 454 kts 259°
2026-05-08 01:35 21.40830 -93.08929 33883 ft 455 kts 259°
2026-05-08 01:35 21.39690 -93.15603 33880 ft 455 kts 259°
2026-05-08 01:36 21.38541 -93.22285 33881 ft 455 kts 259°
2026-05-08 01:36 21.37389 -93.28967 33879 ft 456 kts 259°
2026-05-08 01:37 21.36235 -93.35649 33879 ft 456 kts 259°
2026-05-08 01:37 21.35076 -93.42341 33878 ft 456 kts 259°
2026-05-08 01:38 21.33914 -93.49031 33878 ft 456 kts 259°
2026-05-08 01:38 21.32748 -93.55726 33879 ft 457 kts 259°
2026-05-08 01:39 21.31579 -93.62426 33878 ft 457 kts 259°
2026-05-08 01:39 21.30409 -93.69115 33877 ft 457 kts 259°
2026-05-08 01:40 21.29234 -93.75815 33876 ft 457 kts 259°
2026-05-08 01:40 21.28064 -93.82474 33874 ft 457 kts 259°
2026-05-08 01:41 21.26884 -93.89171 33878 ft 458 kts 258°
2026-05-08 01:41 21.25698 -93.95882 33872 ft 458 kts 258°
2026-05-08 01:42 21.24511 -94.02587 33871 ft 458 kts 258°
2026-05-08 01:42 21.23322 -94.09290 33880 ft 458 kts 258°
2026-05-08 01:43 21.22129 -94.15995 33869 ft 458 kts 258°
2026-05-08 01:43 21.20932 -94.22704 33876 ft 458 kts 258°
2026-05-08 01:44 21.19733 -94.29412 33869 ft 458 kts 258°
2026-05-08 01:44 21.18532 -94.36120 33870 ft 459 kts 258°
2026-05-08 01:45 21.17327 -94.42829 33872 ft 459 kts 258°
2026-05-08 01:45 21.16119 -94.49538 33870 ft 459 kts 258°
2026-05-08 01:46 21.14908 -94.56250 33869 ft 459 kts 258°
2026-05-08 01:46 21.13695 -94.62956 33870 ft 459 kts 258°
2026-05-08 01:47 21.12480 -94.69661 33868 ft 459 kts 258°
2026-05-08 01:47 21.11262 -94.76360 33865 ft 459 kts 258°
2026-05-08 01:48 21.09428 -94.86427 33866 ft 459 kts 258°
2026-05-08 01:48 21.08204 -94.93130 33867 ft 459 kts 258°
2026-05-08 01:49 21.06976 -94.99838 33865 ft 459 kts 258°
2026-05-08 01:49 21.05743 -95.06544 33865 ft 459 kts 258°
2026-05-08 01:50 21.04507 -95.13255 33861 ft 459 kts 258°
2026-05-08 01:50 21.03271 -95.19957 33863 ft 459 kts 258°
2026-05-08 01:51 21.02031 -95.26660 33864 ft 459 kts 258°
2026-05-08 01:51 21.00800 -95.33353 33863 ft 458 kts 258°
2026-05-08 01:52 20.99566 -95.40050 33863 ft 458 kts 258°
2026-05-08 01:52 20.98333 -95.46734 33863 ft 458 kts 258°
2026-05-08 01:53 20.97098 -95.53412 33859 ft 457 kts 258°
2026-05-08 01:53 20.95856 -95.60087 33861 ft 458 kts 258°
2026-05-08 01:54 20.94604 -95.66766 33864 ft 458 kts 258°
2026-05-08 01:54 20.93350 -95.73441 33865 ft 458 kts 258°
2026-05-08 01:55 20.92092 -95.80123 33865 ft 458 kts 258°
2026-05-08 01:55 20.90833 -95.86795 33862 ft 458 kts 257°
2026-05-08 01:56 20.89569 -95.93476 33859 ft 458 kts 257°
2026-05-08 01:56 20.88305 -96.00148 33859 ft 458 kts 257°
2026-05-08 01:57 20.87038 -96.06817 33857 ft 458 kts 257°
2026-05-08 01:57 20.85777 -96.13439 33855 ft 457 kts 257°
2026-05-08 01:58 20.84506 -96.20100 33851 ft 457 kts 257°
2026-05-08 01:58 20.83233 -96.26760 33854 ft 457 kts 257°
2026-05-08 01:59 20.81957 -96.33415 33854 ft 457 kts 257°
2026-05-08 01:59 20.80680 -96.40066 33854 ft 457 kts 257°
2026-05-08 02:00 20.79401 -96.46711 33853 ft 456 kts 257°
2026-05-08 02:00 20.78120 -96.53350 33852 ft 456 kts 257°
2026-05-08 02:01 20.76838 -96.59983 33854 ft 456 kts 257°
2026-05-08 02:01 20.75555 -96.66605 33852 ft 455 kts 257°
2026-05-08 02:02 20.74271 -96.73224 33852 ft 454 kts 257°
2026-05-08 02:02 20.72987 -96.79827 33853 ft 454 kts 257°
2026-05-08 02:03 20.71699 -96.86426 33856 ft 454 kts 257°
2026-05-08 02:03 20.70409 -96.93029 33858 ft 453 kts 257°
2026-05-08 02:04 20.69119 -96.99614 33862 ft 453 kts 256°
2026-05-08 02:04 20.67826 -97.06205 33860 ft 454 kts 256°
2026-05-08 02:05 20.66529 -97.12796 33858 ft 454 kts 256°
2026-05-08 02:05 20.65231 -97.19385 33855 ft 453 kts 256°
2026-05-08 02:06 20.63930 -97.25975 33856 ft 453 kts 256°
2026-05-08 02:06 20.62627 -97.32559 33850 ft 453 kts 256°
2026-05-08 02:07 20.61320 -97.39149 33850 ft 454 kts 256°
2026-05-08 02:07 20.59671 -97.45614 33839 ft 450 kts 241°
2026-05-08 02:08 20.57922 -97.48307 33854 ft 448 kts 228°
2026-05-08 02:08 20.55833 -97.50848 33848 ft 450 kts 230°
2026-05-08 02:08 20.51823 -97.55919 33854 ft 450 kts 230°
2026-05-08 02:09 20.47779 -97.61025 33857 ft 451 kts 230°
2026-05-08 02:09 20.43732 -97.66131 33868 ft 451 kts 230°
2026-05-08 02:10 20.39679 -97.71240 33878 ft 452 kts 230°
2026-05-08 02:10 20.35616 -97.76356 33901 ft 452 kts 229°
2026-05-08 02:11 20.31553 -97.81469 33913 ft 452 kts 229°
2026-05-08 02:11 20.27483 -97.86586 33933 ft 453 kts 229°
2026-05-08 02:12 20.23412 -97.91699 33952 ft 453 kts 229°
2026-05-08 02:12 20.19335 -97.96816 33976 ft 453 kts 229°
2026-05-08 02:13 20.15255 -98.01931 33992 ft 453 kts 229°
2026-05-08 02:13 20.11176 -98.07037 34015 ft 453 kts 229°
2026-05-08 02:14 20.07089 -98.12144 33832 ft 454 kts 229°
2026-05-08 02:14 20.05052 -98.14687 33043 ft 451 kts 229°
2026-05-08 02:14 20.03708 -98.16374 32499 ft 451 kts 230°
2026-05-08 02:15 20.01688 -98.20264 31584 ft 451 kts 251°
2026-05-08 02:15 20.01037 -98.23519 30938 ft 450 kts 257°
2026-05-08 02:15 20.00616 -98.25681 30654 ft 451 kts 256°
2026-05-08 02:15 19.99954 -98.28950 30254 ft 453 kts 256°
2026-05-08 02:16 19.99292 -98.32231 29808 ft 455 kts 256°
2026-05-08 02:16 19.98626 -98.35527 29342 ft 457 kts 256°
2026-05-08 02:16 19.97957 -98.38840 28883 ft 461 kts 256°
2026-05-08 02:16 19.97280 -98.42189 28411 ft 465 kts 256°
2026-05-08 02:17 19.96599 -98.45551 27983 ft 466 kts 256°
2026-05-08 02:17 19.95915 -98.48925 27556 ft 468 kts 256°
2026-05-08 02:17 19.95228 -98.52312 27145 ft 470 kts 256°
2026-05-08 02:17 19.94537 -98.55715 26734 ft 471 kts 256°
2026-05-08 02:18 19.93845 -98.59122 26324 ft 473 kts 256°
2026-05-08 02:18 19.93150 -98.62538 25928 ft 474 kts 256°
2026-05-08 02:18 19.92451 -98.65966 25537 ft 474 kts 256°
2026-05-08 02:18 19.91754 -98.69386 25164 ft 473 kts 256°
2026-05-08 02:19 19.91060 -98.72791 24823 ft 470 kts 256°
2026-05-08 02:19 19.90586 -98.76223 24474 ft 469 kts 261°
2026-05-08 02:19 19.90199 -98.79669 24142 ft 471 kts 261°
2026-05-08 02:19 19.89818 -98.83087 23781 ft 460 kts 261°
2026-05-08 02:20 19.89445 -98.86424 23414 ft 449 kts 261°
2026-05-08 02:20 19.89090 -98.89685 23043 ft 440 kts 263°
2026-05-08 02:20 19.89186 -98.92905 22654 ft 433 kts 273°
2026-05-08 02:20 19.89424 -98.96065 22277 ft 425 kts 272°
2026-05-08 02:21 19.89638 -98.99175 21859 ft 419 kts 272°
2026-05-08 02:21 19.89846 -99.02239 21453 ft 413 kts 272°
2026-05-08 02:21 19.90049 -99.05260 21044 ft 408 kts 272°
2026-05-08 02:21 19.90250 -99.08246 20640 ft 402 kts 272°
2026-05-08 02:22 19.90440 -99.11193 20231 ft 398 kts 271°
2026-05-08 02:22 19.90133 -99.14078 19776 ft 392 kts 251°
2026-05-08 02:22 19.88921 -99.16628 19355 ft 386 kts 233°
2026-05-08 02:22 19.87105 -99.18701 18942 ft 382 kts 219°
2026-05-08 02:23 19.84891 -99.20206 18531 ft 376 kts 204°
2026-05-08 02:23 19.82417 -99.20981 18272 ft 367 kts 187°
2026-05-08 02:23 19.79900 -99.21125 18246 ft 362 kts 184°
2026-05-08 02:23 19.77392 -99.21314 18229 ft 361 kts 185°
2026-05-08 02:24 19.74886 -99.21521 18224 ft 361 kts 185°
2026-05-08 02:24 19.72376 -99.21739 17887 ft 365 kts 185°
2026-05-08 02:24 19.69851 -99.21981 17172 ft 372 kts 185°
2026-05-08 02:24 19.67277 -99.22221 16522 ft 369 kts 185°
2026-05-08 02:25 19.64742 -99.22449 15878 ft 362 kts 185°
2026-05-08 02:25 19.62219 -99.22673 15206 ft 357 kts 185°
2026-05-08 02:25 19.59794 -99.22890 14586 ft 352 kts 185°
2026-05-08 02:25 19.57368 -99.23109 13971 ft 348 kts 185°
2026-05-08 02:26 19.54969 -99.23326 13278 ft 344 kts 185°
2026-05-08 02:26 19.52604 -99.23520 12773 ft 335 kts 180°
2026-05-08 02:26 19.50354 -99.23475 12707 ft 313 kts 178°
2026-05-08 02:26 19.48190 -99.23429 12098 ft 312 kts 178°
2026-05-08 02:27 19.46034 -99.23392 11565 ft 309 kts 179°
2026-05-08 02:27 19.43900 -99.23354 11039 ft 305 kts 176°
2026-05-08 02:27 19.41871 -99.22819 10616 ft 297 kts 152°
2026-05-08 02:27 19.40251 -99.21533 10287 ft 290 kts 129°
2026-05-08 02:28 19.39287 -99.19720 10115 ft 278 kts 104°
2026-05-08 02:28 19.39119 -99.17745 10090 ft 263 kts 83°
2026-05-08 02:28 19.39510 -99.15918 10065 ft 250 kts 61°
2026-05-08 02:28 19.40689 -99.14656 9996 ft 241 kts 24°
2026-05-08 02:29 19.42332 -99.14315 10235 ft 246 kts
2026-05-08 02:29 19.44055 -99.14212 10394 ft 249 kts
2026-05-08 02:29 19.45792 -99.14112 10534 ft 251 kts
2026-05-08 02:29 19.47547 -99.14015 10674 ft 253 kts
2026-05-08 02:30 19.49309 -99.13920 10821 ft 254 kts
2026-05-08 02:30 19.51082 -99.13825 11032 ft 256 kts
2026-05-08 02:30 19.52806 -99.14194 11243 ft 256 kts 330°
2026-05-08 02:30 19.54039 -99.15529 11325 ft 257 kts 295°
2026-05-08 02:31 19.54333 -99.17364 11317 ft 255 kts 261°
2026-05-08 02:31 19.53894 -99.19178 11321 ft 249 kts 251°
2026-05-08 02:31 19.53402 -99.20879 11308 ft 234 kts 247°
2026-05-08 02:31 19.52510 -99.22229 11256 ft 220 kts 217°
2026-05-08 02:32 19.51180 -99.22963 11272 ft 216 kts 193°
2026-05-08 02:32 19.49693 -99.23174 11376 ft 217 kts 182°
2026-05-08 02:32 19.48190 -99.23261 11324 ft 214 kts 181°
2026-05-08 02:32 19.46717 -99.23306 11135 ft 210 kts 180°
2026-05-08 02:33 19.45265 -99.23325 10900 ft 208 kts 179°
2026-05-08 02:33 19.43824 -99.23326 10668 ft 207 kts 179°
2026-05-08 02:33 19.42391 -99.23320 10436 ft 206 kts 178°
2026-05-08 02:33 19.40957 -99.23299 10206 ft 206 kts 175°
2026-05-08 02:34 19.39550 -99.23058 9959 ft 205 kts 160°
2026-05-08 02:34 19.38329 -99.22329 9678 ft 202 kts 135°
2026-05-08 02:34 19.37511 -99.21169 9453 ft 199 kts 114°
2026-05-08 02:34 19.37230 -99.19747 9277 ft 195 kts 84°
2026-05-08 02:35 19.37467 -99.18360 9143 ft 194 kts 73°
2026-05-08 02:35 19.37979 -99.17046 9014 ft 192 kts 61°
2026-05-08 02:35 19.38653 -99.15809 9021 ft 196 kts 58°
2026-05-08 02:35 19.39358 -99.14566 8924 ft 198 kts 58°
2026-05-08 02:36 19.40053 -99.13318 8678 ft 197 kts 57°
2026-05-08 02:36 19.40749 -99.12073 8336 ft 196 kts 57°
2026-05-08 02:36 19.41440 -99.10837 8087 ft 194 kts 57°
2026-05-08 02:36 19.42114 -99.09632 7735 ft 196 kts 57°
2026-05-08 02:37 19.42762 -99.08464 8079 ft 188 kts 57°
2026-05-08 02:37 19.43454 -99.07289 8713 ft 192 kts 57°
2026-05-08 02:37 19.44155 -99.06018 9007 ft 204 kts 62°
2026-05-08 02:37 19.44803 -99.04677 9439 ft 204 kts 63°
2026-05-08 02:38 19.45475 -99.03259 9601 ft 230 kts 65°
2026-05-08 02:38 19.46143 -99.01582 9372 ft 259 kts 72°
2026-05-08 02:38 19.46306 -98.99684 9248 ft 262 kts 99°
2026-05-08 02:38 19.45836 -98.97812 9508 ft 264 kts 103°
2026-05-08 02:39 19.45451 -98.95894 10169 ft 268 kts 101°
2026-05-08 02:39 19.45146 -98.93939 10733 ft 271 kts 99°
2026-05-08 02:39 19.44897 -98.91942 11353 ft 275 kts 100°
2026-05-08 02:39 19.44290 -98.90156 11884 ft 241 kts 131°
2026-05-08 02:40 19.43033 -98.89170 12200 ft 221 kts 159°
2026-05-08 02:40 19.41636 -98.88497 12430 ft 220 kts 156°
2026-05-08 02:40 19.40257 -98.87787 12490 ft 220 kts 156°
2026-05-08 02:40 19.38881 -98.87076 12486 ft 220 kts 156°
2026-05-08 02:41 19.37462 -98.86523 12443 ft 216 kts 178°
2026-05-08 02:41 19.36017 -98.86831 12421 ft 214 kts 205°
2026-05-08 02:41 19.34790 -98.87726 12461 ft 216 kts 223°
2026-05-08 02:41 19.33880 -98.88997 12475 ft 219 kts 239°
2026-05-08 02:42 19.33154 -98.90417 12497 ft 220 kts 239°
2026-05-08 02:42 19.32422 -98.91840 12489 ft 220 kts 239°
2026-05-08 02:42 19.31686 -98.93264 12490 ft 220 kts 239°
2026-05-08 02:42 19.30951 -98.94682 12487 ft 219 kts 239°
2026-05-08 02:43 19.30218 -98.96094 12534 ft 219 kts 239°
2026-05-08 02:43 19.29481 -98.97515 12513 ft 220 kts 239°
2026-05-08 02:43 19.28744 -98.98933 12498 ft 220 kts 239°
2026-05-08 02:43 19.28007 -99.00354 12493 ft 220 kts 238°
2026-05-08 02:44 19.27268 -99.01773 12484 ft 221 kts 239°
2026-05-08 02:44 19.26526 -99.03197 12484 ft 221 kts 238°
2026-05-08 02:44 19.25783 -99.04623 12472 ft 220 kts 239°
2026-05-08 02:44 19.25200 -99.06100 12457 ft 219 kts 257°
2026-05-08 02:45 19.25219 -99.07714 12463 ft 224 kts 279°
2026-05-08 02:45 19.25807 -99.09247 12426 ft 227 kts 298°
2026-05-08 02:45 19.26671 -99.10654 12248 ft 228 kts 302°
2026-05-08 02:45 19.27573 -99.12028 12029 ft 227 kts 303°
2026-05-08 02:46 19.28496 -99.13378 11766 ft 226 kts 304°
2026-05-08 02:46 19.29430 -99.14716 11334 ft 227 kts 306°
2026-05-08 02:46 19.30367 -99.16046 10845 ft 230 kts 307°
2026-05-08 02:46 19.31342 -99.17416 10390 ft 229 kts 308°
2026-05-08 02:47 19.32413 -99.18629 10046 ft 223 kts 323°
2026-05-08 02:47 19.33742 -99.19334 9773 ft 213 kts 348°
2026-05-08 02:47 19.35197 -99.19371 9619 ft 210 kts 14°
2026-05-08 02:47 19.36490 -99.18691 9489 ft 209 kts 38°
2026-05-08 02:48 19.37562 -99.17655 9361 ft 209 kts 49°
2026-05-08 02:48 19.38389 -99.16403 9221 ft 207 kts 60°
2026-05-08 02:48 19.39055 -99.15103 9045 ft 196 kts 61°
2026-05-08 02:48 19.39737 -99.13875 8791 ft 188 kts 58°
2026-05-08 02:49 19.40385 -99.12730 8561 ft 177 kts 59°
2026-05-08 02:49 19.40996 -99.11631 8197 ft 170 kts 58°
2026-05-08 02:49 19.41593 -99.10565 7895 ft 168 kts 57°
2026-05-08 02:49 19.42188 -99.09496 7679 ft 170 kts 57°
2026-05-08 02:50 19.42787 -99.08415 7397 ft 165 kts 53°
2026-05-08 02:50 19.43282 -99.07548 7307 ft 142 kts 54°
2026-05-08 02:50 19.43666 -99.06868 7305 ft 82 kts 60°
2026-05-08 02:50 19.43838 -99.06556 7305 ft 36 kts 57°
2026-05-08 02:51 19.43948 -99.06315 7305 ft 38 kts 80°
2026-05-08 02:51 19.43968 -99.06110 7305 ft 29 kts 94°
2026-05-08 02:51 19.43964 -99.06092 7305 ft 0 kts 120°
2026-05-08 02:51 19.43963 -99.06090 7305 ft 0 kts 121°
2026-05-08 02:52 19.43960 -99.06086 7305 ft 1 kts 121°
2026-05-08 02:52 19.43957 -99.06080 7305 ft 0 kts 124°
2026-05-08 02:52 19.43949 -99.06072 7305 ft 3 kts 136°
2026-05-08 02:52 19.43928 -99.06069 7305 ft 5 kts 204°
2026-05-08 02:53 19.43881 -99.06135 7306 ft 18 kts 240°
2026-05-08 02:53 19.43810 -99.06265 7306 ft 22 kts 239°
2026-05-08 02:53 19.43732 -99.06402 7306 ft 22 kts 238°
2026-05-08 02:53 19.43658 -99.06536 7306 ft 20 kts 240°
2026-05-08 02:54 19.43596 -99.06650 7306 ft 16 kts 237°
2026-05-08 02:54 19.43518 -99.06721 7305 ft 14 kts 205°
2026-05-08 02:54 19.43445 -99.06767 7305 ft 11 kts 224°
2026-05-08 02:54 19.43410 -99.06841 7305 ft 13 kts 250°
2026-05-08 02:55 19.43359 -99.06939 7305 ft 16 kts 239°
2026-05-08 02:55 19.43264 -99.07132 7305 ft 13 kts 260°
2026-05-08 02:55 19.43252 -99.07231 7305 ft 14 kts 257°
2026-05-08 02:56 19.43210 -99.07326 7305 ft 15 kts 238°
2026-05-08 02:56 19.43154 -99.07425 7305 ft 16 kts 239°
2026-05-08 02:56 19.43094 -99.07530 7305 ft 16 kts 238°
2026-05-08 02:56 19.43038 -99.07629 7305 ft 15 kts 239°
2026-05-08 02:57 19.42988 -99.07718 7305 ft 13 kts 238°
2026-05-08 02:57 19.42927 -99.07789 7305 ft 13 kts 221°
2026-05-08 02:57 19.42855 -99.07840 7305 ft 12 kts 209°
2026-05-08 02:57 19.42790 -99.07877 7304 ft 9 kts 200°
2026-05-08 02:58 19.42733 -99.07870 7304 ft 9 kts 153°
2026-05-08 02:58 19.42672 -99.07831 7305 ft 10 kts 150°
2026-05-08 02:58 19.42616 -99.07825 7305 ft 6 kts 222°
2026-05-08 02:58 19.42593 -99.07862 7305 ft 7 kts 237°
2026-05-08 02:59 19.42565 -99.07909 7305 ft 8 kts 239°
2026-05-08 02:59 19.42530 -99.07957 7305 ft 8 kts 206°
2026-05-08 02:59 19.42496 -99.07945 7305 ft 0 kts 132°
2026-05-08 03:00 19.42495 -99.07944 7305 ft 1 kts 137°
2026-05-08 03:00 19.42485 -99.07934 7305 ft 3 kts 137°
2026-05-08 03:00 19.42473 -99.07922 7305 ft 2 kts 137°
2026-05-08 03:00 19.42470 -99.07919 7305 ft 0 kts 137°
2026-05-08 03:01 19.42469 -99.07918 7305 ft 1 kts 137°
2026-05-08 03:01 19.42467 -99.07916 7305 ft 0 kts 137°